Location: Invercargill
(46.4000°S, 168.3500°E)
Time: 19:23:07
(UTC+13:00)

FREGAT/IRIS - Pass Details

Date: 24 January 2019
Orbit: 358 x 365 km, 97.0° (Epoch: 21 February)

Event Time Altitude Azimuth Distance (km) Brightness Sun altitude
Rises 22:09:32 0° 175° (S) 2,268 6.9 -6.5°
Reaches altitude 10° 22:11:34 10° 182° (S) 1,408 6.0 -6.8°
Maximum altitude 22:14:24 40° 253° (WSW) 578 4.1 -7.2°
Drops below altitude 10° 22:17:13 10° 324° (NW) 1,388 5.4 -7.6°
Sets 22:19:12 0° 332° (NNW) 2,229 6.3 -7.8°
